Regional Weather Roundup
Issued by NWS

Home | Current Version | Previous Version | Text Only | Print | Product List | Glossary Off
Versions: 1 2 3 4 5 6 7 8 9 10 11 12 13 14 15 16 17 18 19 20 21 22 23 24 25 26 27 28 29 30 31 32 33 34 35 36 37 38 39 40 41 42 43 44 45 46 47 48 49 50

000
ASUS43 KFSD 230502
RWRSD

WEATHER ROUNDUP FOR SOUTH DAKOTA
NATIONAL WEATHER SERVICE SIOUX FALLS SD
1200 AM CDT WED APR 23 2014

NOTE: "FAIR" INDICATES FEW OR NO CLOUDS BELOW 12,000 FEET WITH NO
SIGNIFICANT WEATHER AND/OR OBSTRUCTIONS TO VISIBILITY.


SDZ001>005-009-010-012>017-230600-
NORTHWEST AND NORTH CENTRAL SOUTH DAKOTA

CITY           SKY/WX    TMP DP  RH WIND       PRES   REMARKS
MOBRIDGE       CLOUDY    57  32  38 E25G41    29.68F
$$

SDZ012>016-024>037-041>051-057-063-072>074-230600-
SOUTHWEST AND SOUTH CENTRAL SOUTH DAKOTA

CITY           SKY/WX    TMP DP  RH WIND       PRES   REMARKS
RAPID CTY ARPT CLOUDY    60  44  55 S9        29.58F
PIERRE         NOT AVBL
CUSTER         CLOUDY    55  40  56 SE9       29.65F
ELLSWORTH AFB  CLOUDY    61  45  55 S12       29.57F
PHILIP         CLOUDY    65  39  38 SE16G26   29.57F
PINE RIDGE     CLOUDY    63  46  54 SE25G41   29.58F
WINNER         FAIR      63  32  31 SE20      29.75F
$$

SDZ004>011-016>023-039-040-230600-
NORTHEAST SOUTH DAKOTA

CITY           SKY/WX    TMP DP  RH WIND       PRES   REMARKS
ABERDEEN       CLOUDY    54  36  50 SE14      29.85F
WATERTOWN      CLOUDY    53  34  48 SE13G22   29.92F
$$

SDZ017-020-022-023-036>040-048>070-230600-
SOUTHEAST SOUTH DAKOTA

CITY           SKY/WX    TMP DP  RH WIND       PRES   REMARKS
SIOUX FALLS    CLOUDY    56  34  43 SE15G26   29.93F
HURON          CLOUDY    58  33  39 SE17G25   29.83F
CHAMBERLAIN      N/A     58  33  39 SE25G35   29.77F
MITCHELL       MOCLDY    58  34  40 SE22      29.86F
YANKTON        MOCLDY    57  34  41 E13       29.91F
$$

ABBREVIATIONS USED IN REMARKS
   TC - TEMPERATURE IN CELSIUS
  WCI - WIND CHILL INDEX
   HX - HEAT INDEX
  VSB - VISIBILITY




USA.gov is the U.S. government's official web portal to all federal, state and local government web resources and services.